This is the latest recevied weather packets stored in our database for station/object DJ2DS-13. If no packets are shown the sender has not sent any weather packets the latest 10 day(s).
| Time | Temp. | Humidity | Pressure | Rain* | Wind** | Luminosity | Snow |
|---|---|---|---|---|---|---|---|
| 1777658228 | 21.67° C | 41% | 1020.7 hPa | 0 mm | - | 76 W/m² | - |
| 1777657928 | 21.67° C | 42% | 1020.7 hPa | 0 mm | - | 86 W/m² | - |
| 1777657625 | 21.67° C | 41% | 1020.9 hPa | 0 mm | - | 99 W/m² | - |
| 1777657325 | 21.67° C | 40% | 1020.9 hPa | 0 mm | - | 111 W/m² | - |
| 1777657026 | 21.67° C | 40% | 1021 hPa | 0 mm | - | 123 W/m² | - |
| 1777656728 | 22.22° C | 39% | 1021 hPa | 0 mm | - | 137 W/m² | - |
| 1777656426 | 22.22° C | 37% | 1021 hPa | 0 mm | - | 149 W/m² | - |
| 1777656124 | 22.22° C | 38% | 1021 hPa | 0 mm | - | 162 W/m² | - |
| 1777655823 | 22.22° C | 37% | 1021 hPa | 0 mm | - | 176 W/m² | - |
| 1777655523 | 22.22° C | 36% | 1021 hPa | 0 mm | - | 190 W/m² | - |
| 1777655223 | 22.78° C | 36% | 1021 hPa | 0 mm | - | 206 W/m² | - |
| 1777654923 | 22.78° C | 35% | 1021.1 hPa | 0 mm | - | 220 W/m² | - |
| 1777654624 | 22.78° C | 35% | 1021.2 hPa | 0 mm | - | 234 W/m² | - |
| 1777654323 | 22.78° C | 35% | 1021.2 hPa | 0 mm | - | 246 W/m² | - |
| 1777654024 | 22.78° C | 36% | 1021.3 hPa | 0 mm | - | 260 W/m² | - |
| 1777653722 | 22.78° C | 35% | 1021.3 hPa | 0 mm | - | 271 W/m² | - |
| 1777653421 | 22.78° C | 36% | 1021.4 hPa | 0 mm | - | 285 W/m² | - |
| 1777653120 | 22.78° C | 36% | 1021.5 hPa | 0 mm | - | 297 W/m² | - |
| 1777652521 | 22.78° C | 36% | 1021.5 hPa | 0 mm | - | 324 W/m² | - |
| 1777652220 | 22.78° C | 36% | 1021.7 hPa | 0 mm | - | 336 W/m² | - |
| 1777651920 | 22.78° C | 36% | 1021.8 hPa | 0 mm | - | 345 W/m² | - |
| 1777651621 | 22.78° C | 35% | 1021.7 hPa | 0 mm | - | 357 W/m² | - |
| 1777651321 | 22.78° C | 36% | 1021.9 hPa | 0 mm | - | 373 W/m² | - |
| 1777651020 | 23.33° C | 34% | 1021.8 hPa | 0 mm | - | 385 W/m² | - |
| 1777650718 | 23.33° C | 36% | 1021.9 hPa | 0 mm | - | 397 W/m² | - |
* Rain latest hour (hover to see other rain measurements)
** Current wind speed in m/s (hover to see current wind gust speed)